Погода в Хапо-Ое

Россия / Санкт-Петербург и Ленинградская область     59°52′58″N   30°44′38″E
темп.,
°C
ветер,
м/с
пор.,
м/с
влажн.,
%
обл.,
%
осадки,
мм/ч
давл.,
гПа
погр.,
м
5 августа, чт
чт500:00+10юз22792 0.0 101627
03:00+10юз228112 0.0 101732
06:00+10юз12815 0.0 101735
09:00+17зюз115824 0.0 1017439
12:00+21ююв1139100 0.0 10172274
15:00+18св3454100 0.0 1017408
18:00+16св2560100 0.0 1016206
21:00+13св257696 0.0 101793
6 августа, пт
пт600:00+11всв118622 0.0 101712
03:00+12ссз11859 0.0 101614
06:00+11ссв12916 0.0 101629
09:00+17св46598 0.0 1016614
12:00+19всв58485 0.0 10161563
15:00+19всв684866 0.0 10151877
18:00+18всв5115499 0.0 10151594
21:00+14всв51268100 0.0 10151075
7 августа, сб
сб700:00+13всв51079100 0.0 1014718
03:00+14всв41083100 0.0 1013727
06:00+13всв51185100 0.0 1012514
09:00+15всв51281100 0.3 1011645
12:00+15всв51294100 3.9 1011706
15:00+15в51196100 4.3 1010780
18:00+15в41198100 3.9 1009660
21:00+15в3999100 7.5 1009459
8 августа, вс
вс800:00+15всв3799100 0.4 1008465
03:00+15вюв13100100 0.4 1008178
06:00+15ююв1299100 0.0 100899
09:00+16вюв0199100 0.5 1009121
12:00+16ссз139998 0.9 1010160
15:00+17ссв129794 1.1 1011204
18:00+17ссв239698 0.0 1011204
21:00+15ссв129940 0.0 101333
9 августа, пн
пн900:00+14ссв129868 0.0 101474
03:00+15св1296100 0.0 101451
06:00+15всв119496 0.0 101425
09:00+17всв228340 0.0 1014448
12:00+21всв326463 0.0 1015938
15:00+21всв336699 0.0 1015681
18:00+19св467479 0.0 1014379
21:00+17всв41085100 0.0 1012339